Wind_Speed
27 23 18 17 19 19 19 20 21 20 23 25 25 25 21 19 19 19 20 20 19 17 17 17 16 16 15 14 14 14 14 13 14 14 14 14 14 14 15 16 16 16 16 16
30 28 22 19 18 18 19 19 21 23 25 27 25 22 20 19 21 20 21 21 20 19 19 19 18 18 18 17 16 16 16 16 15 15 14 14 14 15 16 17 17 18 18 18
30 27 26 27 24 22 21 21 22 25 28 28 27 24 20 19 21 22 22 22 22 21 20 20 20 20 19 19 18 18 18 17 16 16 16 15 16 16 16 18 18 18 18 18
31 28 30 28 25 24 25 24 25 28 31 31 29 26 23 24 24 24 24 24 23 22 22 22 22 21 20 20 20 20 19 19 18 17 17 17 18 18 18 19 18 18 18 18
33 31 30 27 25 26 27 28 28 31 34 33 29 29 29 28 27 26 25 24 24 24 23 23 23 22 22 22 21 21 21 20 19 19 19 19 20 19 19 19 19 19 20 20
35 32 29 27 28 28 29 31 32 34 34 32 29 30 29 27 27 26 25 25 25 25 24 23 23 23 23 23 23 23 22 22 21 22 22 21 21 21 20 20 20 21 21 22
36 35 32 30 32 32 32 33 33 34 33 32 31 29 29 29 28 27 27 26 26 26 25 25 24 24 24 24 23 23 24 24 24 24 24 23 23 22 22 22 22 22 23 24
37 37 34 35 36 37 35 33 32 32 32 32 32 31 31 30 30 29 28 28 27 26 26 26 25 26 25 25 25 25 25 24 24 24 24 24 25 24 24 24 24 24 24 24
35 37 39 38 38 38 37 35 32 33 34 32 32 31 31 31 31 30 30 30 29 28 27 27 26 26 26 26 25 25 26 25 25 25 25 25 25 25 25 25 25 26 26 26
36 38 41 42 41 39 39 38 36 35 35 34 34 33 33 32 32 32 31 31 30 29 29 28 27 27 27 26 26 25 25 25 26 26 26 26 25 25 25 25 26 26 26 27
40 40 40 40 41 41 38 37 36 35 36 35 34 34 33 33 32 32 32 31 30 29 29 28 28 28 27 27 26 26 26 26 26 26 26 26 25 25 25 25 26 26 25 25
40 41 41 40 40 38 37 36 36 35 35 35 35 34 34 33 33 32 31 31 30 29 29 28 28 27 27 28 28 27 26 25 25 25 25 25 24 24 24 25 25 24 24 25
39 39 39 39 39 39 36 35 35 35 34 34 33 33 33 32 32 31 31 30 30 29 29 28 27 27 27 26 26 26 26 25 24 24 24 24 23 24 24 24 24 24 24 24
38 38 38 38 37 37 36 35 35 34 33 32 32 32 31 31 31 31 31 30 29 29 28 27 26 26 26 26 25 25 24 24 23 23 23 23 23 24 24 24 24 24 23 23
36 37 36 36 36 35 35 34 33 32 32 32 32 32 31 31 31 30 30 30 29 28 27 26 25 25 25 24 24 23 23 23 22 22 22 22 22 21 21 22 22 22 22 22
35 34 35 35 35 35 34 33 32 31 31 31 31 31 30 30 29 29 29 28 27 27 26 25 24 24 23 22 22 22 22 22 21 21 21 20 20 20 20 20 21 21 22 23
35 34 34 34 33 32 33 32 31 30 30 29 29 29 28 27 27 26 26 25 25 25 24 24 23 22 21 21 20 20 19 18 18 18 18 19 19 19 20 20 20 21 22 22
32 30 29 30 29 29 29 30 29 29 28 28 27 27 26 25 24 23 22 22 21 20 20 20 20 20 19 18 17 17 16 16 17 17 18 19 19 20 20 20 20 21 21 22
30 29 28 27 27 28 28 28 27 26 26 25 25 24 24 23 23 22 21 21 20 20 19 19 18 18 17 17 16 16 16 17 17 17 17 18 19 20 20 20 20 20 21 22
28 28 27 27 27 27 26 25 24 23 23 23 22 22 22 21 21 21 21 20 20 19 18 18 17 16 16 16 15 15 15 16 16 16 17 18 18 18 18 19 20 21 22 22
27 28 27 26 26 25 24 24 23 22 21 20 21 21 21 20 20 20 19 18 18 17 16 15 14 14 14 15 15 15 16 17 17 18 18 18 19 19 20 20 21 22 23 23
24 25 25 24 24 23 22 22 21 21 20 20 20 19 19 18 18 18 17 16 15 15 14 14 14 14 15 15 16 17 17 18 18 18 19 19 20 21 21 22 22 23 24 24
21 21 21 21 20 20 20 19 19 19 19 19 18 18 17 17 16 15 15 14 14 14 14 14 15 15 16 16 17 18 18 18 18 19 20 21 21 22 22 23 23 24 25 25
20 20 19 18 18 18 17 17 17 17 17 17 16 15 15 15 15 14 14 14 14 14 14 14 15 16 17 17 17 17 18 18 20 21 21 22 22 23 23 24 24 25 26 26
17 17 16 16 16 16 15 15 15 15 15 15 14 13 13 13 13 13 14 14 14 14 15 15 15 16 16 17 17 18 19 20 21 22 22 23 24 24 25 25 25 26 26 26
15 15 15 14 14 14 14 14 14 14 14 14 14 13 13 13 13 13 14 14 14 15 15 15 16 17 18 18 19 20 21 21 22 23 24 24 25 25 25 26 26 26 26 26
12 12 12 12 12 11 11 12 12 12 12 12 12 11 11 12 12 13 13 13 14 15 15 16 17 18 18 19 20 21 22 22 23 24 24 25 25 26 26 26 26 26 26 26
Wind_Direction
216 214 228 241 241 238 235 231 234 241 252 260 263 267 265 270 281 282 283 285 288 290 290 290 289 289 290 294 296 297 296 295 293 291 292 290 285 280 279 276 273 271 271 273
222 216 220 232 237 235 237 240 237 240 250 251 253 255 262 271 278 280 282 283 283 285 286 287 287 288 287 288 290 293 295 296 295 292 290 292 291 288 283 281 278 274 274 275
225 222 224 228 230 233 235 238 241 245 250 256 259 263 266 271 277 282 282 281 280 281 283 286 287 288 286 284 286 289 292 294 293 292 289 288 288 289 286 282 281 278 276 274
225 222 228 232 230 234 237 238 238 242 249 253 256 264 272 276 278 280 280 280 279 280 281 283 285 285 284 283 283 285 287 289 291 290 287 285 287 287 286 284 281 278 276 273
227 227 232 231 229 230 233 235 236 240 247 252 257 263 267 273 277 278 279 278 278 278 280 282 284 283 282 282 282 282 284 286 287 288 285 286 288 287 285 284 282 278 277 278
229 226 227 231 232 231 235 238 236 240 247 253 256 260 264 271 276 277 277 277 276 278 280 280 281 281 281 281 281 281 281 282 284 286 285 286 287 286 285 285 284 280 279 279
229 229 227 230 232 231 230 236 240 246 251 255 259 262 266 272 275 275 276 277 277 277 278 279 279 279 280 280 281 280 280 281 282 284 285 285 285 287 287 286 286 285 284 282
231 229 229 232 235 236 234 236 239 247 252 255 260 262 266 270 272 273 274 275 276 277 277 278 278 277 278 279 279 280 280 280 281 283 285 284 284 285 286 286 285 286 286 285
233 230 229 230 236 241 243 243 244 250 255 259 261 263 266 268 271 272 273 274 276 276 276 276 276 277 276 278 280 281 281 279 280 281 281 282 283 284 284 285 285 287 286 285
227 230 232 233 236 240 244 248 250 253 257 260 262 264 266 267 269 270 271 273 274 274 275 274 275 276 276 277 278 280 281 280 280 281 281 280 280 282 282 284 285 285 285 286
228 232 235 237 241 242 245 248 251 255 257 261 263 264 265 266 267 269 271 272 272 273 274 275 274 274 274 275 277 278 279 280 280 281 281 280 280 281 282 284 286 287 286 287
226 232 236 238 242 245 247 250 253 254 257 259 261 262 264 265 266 268 270 270 271 272 273 274 275 275 275 275 276 277 278 278 280 280 279 279 279 281 282 283 285 286 288 286
230 234 236 238 243 248 252 253 254 254 256 258 260 261 262 264 266 267 268 269 269 270 272 273 274 274 275 276 276 275 276 277 278 278 277 277 278 280 281 282 284 287 287 286
231 235 238 241 244 247 249 252 254 254 255 257 259 260 261 262 264 266 267 267 268 269 271 273 274 274 274 275 275 274 274 276 277 277 276 276 278 280 280 282 283 285 287 288
233 236 240 243 245 246 249 250 253 254 255 257 258 259 260 261 263 264 266 266 266 267 269 271 273 275 275 274 273 272 272 273 275 277 277 277 278 279 280 281 282 285 289 291
237 239 241 245 248 247 249 251 252 254 254 254 256 258 259 260 262 264 266 266 265 267 268 269 272 274 274 274 273 270 270 271 271 275 276 276 277 279 281 282 283 285 287 289
237 239 240 243 245 248 250 250 250 252 252 253 255 256 258 259 261 263 263 264 265 266 266 267 270 273 273 273 271 269 268 271 274 275 275 275 278 279 279 281 283 286 287 289
235 236 238 240 242 244 247 249 249 249 250 251 253 254 256 257 258 259 260 262 263 263 265 269 270 271 271 272 269 268 270 272 275 276 278 277 278 280 283 284 286 289 289 291
233 235 237 240 242 243 244 245 246 247 248 249 251 252 254 254 254 256 259 261 260 262 264 267 268 267 268 266 266 268 271 273 275 276 278 280 280 282 284 285 287 290 292 293
235 236 237 239 240 241 242 243 243 245 245 246 248 250 252 253 254 256 258 257 257 259 261 263 265 265 264 265 268 271 274 276 277 279 280 281 282 283 285 288 290 292 293 293
234 235 237 239 240 239 240 241 242 242 243 244 247 248 249 253 254 254 254 252 253 254 256 260 261 261 264 268 271 273 275 278 280 281 283 284 285 286 288 289 291 292 293 294
229 232 233 235 236 236 237 237 238 239 240 241 242 244 246 246 246 248 248 246 248 250 255 260 262 263 266 269 271 274 276 278 280 282 283 285 287 288 290 291 292 293 294 293
222 225 227 229 230 231 231 231 232 234 236 236 238 239 239 238 240 243 243 246 250 253 257 260 262 265 270 274 276 277 279 281 283 285 287 288 290 291 293 293 293 294 294 294
215 218 221 223 222 222 223 224 227 230 232 232 231 230 231 235 238 240 243 248 252 256 260 263 267 270 274 276 278 279 281 283 285 287 288 289 291 292 292 292 292 293 293 293
208 212 212 214 215 215 218 220 223 225 225 225 226 229 234 236 239 242 246 251 255 260 263 268 271 273 277 279 280 282 285 287 287 288 289 291 292 292 292 292 292 293 293 294
199 202 205 208 208 211 215 218 219 220 222 225 228 231 234 238 241 245 250 254 259 263 268 272 276 279 281 282 283 286 287 288 289 289 290 291 291 292 293 293 293 293 293 294
187 192 198 201 204 207 211 213 215 217 219 219 221 224 231 238 242 247 252 259 266 271 275 278 280 282 284 286 287 288 290 290 290 290 291 292 292 293 293 293 293 293 293 293
Height
5835 5839 5841 5843 5845 5847 5848 5851 5853 5854 5852 5849 5846 5845 5846 5848 5849 5850 5850 5850 5849 5848 5848 5847 5847 5846 5846 5845 5844 5843 5842 5841 5840 5839 5838 5838 5837 5837 5837 5837 5838 5838 5838 5838
5828 5833 5836 5839 5841 5843 5845 5846 5848 5848 5846 5842 5839 5840 5841 5845 5846 5846 5846 5846 5846 5845 5845 5844 5843 5843 5842 5842 5841 5840 5839 5838 5837 5836 5835 5835 5834 5834 5834 5834 5834 5834 5834 5834
5821 5827 5830 5832 5836 5838 5840 5842 5843 5842 5840 5837 5837 5836 5837 5839 5841 5842 5842 5842 5841 5841 5841 5840 5839 5839 5838 5838 5837 5836 5836 5835 5833 5833 5832 5832 5831 5831 5830 5830 5830 5829 5829 5830
5815 5820 5822 5827 5830 5832 5834 5835 5836 5835 5833 5832 5831 5831 5834 5836 5837 5837 5837 5837 5837 5836 5836 5835 5835 5834 5834 5834 5833 5833 5832 5831 5830 5829 5828 5828 5828 5827 5826 5826 5825 5825 5825 5825
5807 5811 5815 5820 5822 5825 5827 5828 5828 5828 5825 5826 5827 5829 5830 5831 5832 5832 5832 5832 5831 5831 5831 5831 5830 5829 5829 5829 5828 5828 5828 5827 5826 5825 5825 5824 5823 5822 5822 5821 5821 5820 5820 5820
5799 5804 5809 5813 5815 5816 5820 5819 5821 5820 5819 5820 5823 5825 5825 5826 5826 5826 5826 5826 5826 5826 5826 5825 5825 5824 5824 5824 5823 5823 5823 5822 5821 5821 5820 5820 5819 5818 5817 5817 5816 5815 5815 5815
5791 5796 5801 5804 5804 5808 5812 5811 5811 5812 5813 5815 5817 5819 5819 5820 5820 5820 5820 5820 5820 5820 5820 5820 5820 5819 5818 5818 5818 5817 5817 5817 5816 5815 5815 5814 5813 5813 5812 5812 5811 5810 5809 5809
5784 5788 5795 5794 5795 5799 5800 5802 5803 5805 5806 5808 5811 5813 5813 5813 5814 5814 5814 5814 5814 5814 5814 5814 5813 5813 5812 5812 5812 5811 5811 5810 5810 5809 5809 5808 5808 5807 5807 5806 5805 5805 5803 5803
5776 5780 5782 5785 5787 5790 5794 5795 5796 5799 5801 5802 5803 5805 5806 5806 5807 5807 5807 5807 5807 5807 5807 5807 5807 5806 5806 5806 5805 5804 5804 5804 5803 5803 5803 5802 5801 5801 5801 5800 5799 5798 5797 5796
5766 5769 5773 5776 5779 5783 5786 5788 5790 5792 5794 5794 5796 5798 5798 5799 5800 5800 5800 5800 5800 5800 5800 5800 5800 5799 5799 5799 5798 5798 5797 5797 5797 5796 5796 5795 5795 5794 5794 5793 5792 5791 5790 5789
5758 5761 5765 5769 5772 5775 5777 5779 5782 5785 5786 5788 5789 5790 5791 5791 5792 5792 5792 5792 5792 5793 5793 5793 5793 5792 5792 5791 5791 5791 5791 5790 5790 5789 5789 5788 5788 5788 5787 5786 5786 5785 5784 5783
5749 5753 5758 5761 5764 5766 5769 5772 5775 5777 5779 5780 5781 5782 5782 5783 5784 5784 5785 5785 5785 5785 5785 5785 5785 5785 5784 5784 5784 5784 5784 5783 5783 5782 5782 5781 5781 5781 5780 5779 5779 5778 5777 5776
5742 5745 5748 5751 5756 5759 5762 5764 5767 5769 5770 5772 5773 5774 5774 5775 5776 5777 5777 5777 5777 5777 5778 5778 5778 5777 5777 5777 5777 5777 5777 5777 5776 5776 5775 5775 5774 5774 5773 5773 5772 5771 5770 5769
5734 5737 5740 5745 5749 5751 5753 5756 5758 5759 5762 5763 5765 5766 5767 5768 5768 5769 5769 5769 5770 5770 5770 5770 5770 5770 5770 5770 5770 5770 5770 5770 5770 5769 5769 5768 5768 5767 5767 5766 5765 5764 5764 5762
5726 5730 5734 5737 5741 5743 5745 5748 5750 5750 5753 5755 5757 5758 5759 5760 5761 5761 5762 5762 5762 5763 5763 5763 5763 5763 5763 5763 5763 5763 5763 5763 5763 5763 5762 5762 5762 5761 5761 5760 5759 5758 5757 5756
5719 5723 5726 5729 5732 5735 5737 5740 5742 5743 5745 5747 5749 5750 5751 5752 5753 5754 5754 5754 5755 5755 5756 5756 5756 5756 5756 5756 5757 5757 5757 5757 5757 5757 5756 5756 5756 5755 5755 5754 5753 5752 5751 5750
5712 5716 5719 5722 5725 5727 5729 5732 5734 5736 5738 5740 5741 5743 5744 5745 5746 5746 5747 5747 5748 5748 5749 5750 5750 5750 5750 5750 5750 5751 5751 5750 5750 5751 5750 5750 5750 5749 5749 5748 5747 5746 5745 5743
5705 5709 5712 5715 5717 5719 5722 5724 5726 5728 5730 5732 5734 5736 5737 5738 5739 5740 5740 5741 5742 5743 5743 5744 5744 5744 5745 5745 5745 5745 5745 5745 5745 5745 5745 5744 5744 5744 5743 5742 5741 5740 5738 5737
5699 5702 5705 5707 5710 5713 5715 5717 5719 5721 5723 5725 5727 5729 5730 5731 5733 5734 5735 5736 5737 5737 5738 5738 5739 5739 5739 5739 5740 5740 5740 5740 5740 5740 5739 5739 5738 5738 5737 5736 5735 5734 5732 5731
5692 5695 5698 5701 5704 5706 5709 5711 5713 5715 5717 5719 5721 5723 5724 5726 5727 5728 5730 5731 5732 5732 5733 5733 5734 5734 5735 5735 5735 5735 5735 5735 5735 5735 5734 5734 5733 5732 5731 5730 5729 5728 5726 5724
5686 5689 5692 5695 5697 5700 5703 5705 5707 5710 5712 5714 5716 5717 5719 5721 5722 5723 5725 5726 5727 5728 5728 5729 5730 5730 5730 5731 5731 5731 5731 5731 5730 5730 5729 5728 5727 5727 5725 5724 5723 5721 5720 5718
5680 5683 5687 5689 5692 5695 5697 5700 5702 5705 5707 5709 5711 5713 5714 5716 5717 5719 5720 5722 5722 5723 5724 5725 5726 5726 5726 5726 5726 5726 5726 5725 5725 5724 5723 5722 5721 5720 5719 5717 5716 5714 5712 5710
5676 5679 5682 5685 5688 5691 5693 5696 5698 5700 5702 5704 5706 5708 5710 5711 5713 5715 5716 5718 5719 5720 5720 5721 5721 5722 5722 5722 5721 5721 5720 5720 5719 5718 5717 5716 5715 5713 5712 5710 5709 5707 5705 5703
5672 5676 5679 5682 5685 5688 5690 5693 5695 5697 5699 5701 5702 5704 5706 5708 5710 5711 5713 5714 5715 5716 5716 5717 5717 5717 5717 5716 5716 5715 5715 5714 5713 5712 5711 5710 5708 5707 5705 5703 5701 5699 5697 5695
5671 5674 5676 5680 5682 5685 5687 5690 5692 5694 5696 5698 5700 5702 5703 5705 5707 5708 5709 5710 5711 5712 5712 5712 5712 5712 5711 5711 5710 5710 5709 5708 5707 5706 5704 5703 5701 5700 5698 5696 5694 5692 5690 5687
5669 5672 5675 5678 5680 5683 5685 5687 5689 5691 5693 5695 5697 5699 5701 5702 5704 5705 5706 5706 5707 5707 5707 5707 5707 5706 5706 5705 5705 5704 5703 5702 5700 5699 5697 5695 5694 5692 5690 5688 5686 5684 5682 5680
5669 5672 5674 5677 5679 5681 5683 5685 5687 5689 5691 5693 5695 5696 5698 5699 5700 5701 5702 5702 5703 5703 5702 5702 5701 5701 5700 5699 5698 5697 5696 5694 5693 5691 5689 5688 5686 5684 5682 5680 5678 5676 5674 5672